"Pseudo-MPEC" for ZTF02CO

Created 2019 Jan 12 1:18:53 UT using Find_Orb

Click here for an explanation of pseudo-MPECs

 
 Astrometry: 
     ZTF02CO  C2019 01 10.26357705 09 38.08 +19 13 55.5    ~1A8I 17.94RUNEOCPI41
     ZTF02CO  C2019 01 10.26392405 09 37.13 +19 14 01.6    ~1A8I 17.94RUNEOCPI41
     ZTF02CO  C2019 01 10.26768905 09 27.27 +19 15 07.1    ~1A8I 17.96RUNEOCPI41
     ZTF02CO  C2019 01 10.26803605 09 26.33 +19 15 13.0    ~1A8I 17.96RUNEOCPI41
     ZTF02CO  C2019 01 11.17558204 20 33.22 +24 27 13.7    ~1BDI 18.55gUNEOCPI41
     ZTF02CO  C2019 01 11.17592904 20 31.57 +24 27 21.5    ~1BDI 18.55gUNEOCPI41
     ZTF02CO  C2019 01 11.17695004 20 27.15 +24 27 44.0    ~1BDI 18.44gUNEOCPI41
     ZTF02CO  C2019 01 11.17729704 20 25.51 +24 27 52.9    ~1BDI 18.44gUNEOCPI41
     ZTF02CO  C2019 01 11.35913 04 05 59.63 +25 38 57.2    ~1BDI 17.8 GVNEOCPI52
     ZTF02CO  C2019 01 11.35932 04 05 58.77 +25 39 01.6    ~1BDI 17.8 GVNEOCPI52
     ZTF02CO  C2019 01 11.35950 04 05 57.92 +25 39 04.8    ~1BDI 17.7 GVNEOCPI52
     ZTF02CO  C2019 01 11.35969 04 05 56.93 +25 39 09.9    ~1BDI       VNEOCPI52
     ZTF02CO KC2019 01 11p6Psc34kTx?Sa.lNfwyoaROBPM1xG$O=oYkXF%Astrometry$UWCL01
     ZTF02CO KC2019 01 11QyAlRJ4(wZx$dpswa,D@0yQ-aJ9;JFJ_mV/'8-[M_`7U34?26)ehL01
     ZTF02CO  C2019 01 11HBf.5vqp5XRblSs%AjyTZ(sH?:IuWLqwZ,t+Wcdc%\UX/4yy3-ZpL01
     ZTF02CO  C2019 01 110.e(+yhY*EvHredacted;b!^qYn,3ms@'iUdY6;r!I7).6KBtKw3L01
     ZTF02CO  C2019 01 11fwda$.Bg-79.`PkI@pk:A/7U)s:]+IyIdX1[TRhlkP,uuU;kF030L01
     ZTF02CO KC2019 01 11wAvD.0ycbgU.qa)lqy^q/K'0mu+)K\$K2HDAXC^ue9)6Tf)%eAwNL01
     ZTF02CO KC2019 01 11B%ZF*lHNg[LKV7_'s%0Rk+O?w.XjaVff6clickfq]5yJJKPn?DAD104
     ZTF02CO KC2019 01 1171A\MRHmh5d%$d*NiZ.,(MPJK^x;x!$jgEL:QN-@cLygj)oYc#?l595
     ZTF02CO KC2019 01 11q,ouP6tVPL+8FHEj.O_Alca8m0.IrtYLo/j@mpK_s#;=ej#`7@!O104
     ZTF02CO KC2019 01 11e=@5']YG*OriEEF`ce+@KB:Mq[m/LQJlhereoj[vM:w1CoBn(1eg595
     ZTF02CO KC2019 01 11'ej-nSe_4;f(8xKaRmVSPAr=Mc'r[bSF,;=!n(:]xZe62kRe^brh595
     ZTF02CO KC2019 01 11]5O6\5+S6[*7YeJwmV,4t!%Z2YmoHv_^2E7yM-6`L8dI`@fF8T@:104
     ZTF02CO KC2019 01 11;yhS13kg2tHX;CJUcj!DApXvvJE%?xforms/'Pm6%n%17OfUsgWb106
     ZTF02CO KC2019 01 11\t\OGE0eO$UTtIZ_;cKp]l'U..+Ge_+!YAP@;EpsJm$*,sH1C+#J106
     ZTF02CO KC2019 01 11*rRd:\D4wj^pDc=GIuoZ7B:#._69j.k.NRk%vOPA8mw`qsU+k0Ch106
     ZTF02CO KC2019 01 11Tx[UcnFiEOs@explanationBf=(]67C\GfJrf\V6j.L,=5T=XymQ106

Station data:
(104) San Marcello Pistoiese  (N44.063037 E10.804200)  Italy. 0.40-m f/5
   reflector.
(106) Črni Vrh  (N45.945908 E14.071100)  Slovenia.  Observer J. Skvarč. 0.6-m
   f/3.3 Deltagraph + CCD.
(595) Farra d'Isonzo  (N45.915734 E13.525780)  Italy.  Observers L.
   Bittesini, F. Fabris, E. Pettarin, F. Piani. Measurer E. Pettarin. 0.30-m
   f/4.5 reflector + CCD.
(I41) Palomar Mountain--ZTF  (N33.357340 W116.859780)  US/California. 1.2-m
   f/2.44 Oschin Schmidt + CCD.
(I52) Steward Observatory, Mt. Lemmon Station  (N32.442547 W110.788920)
   US/Arizona.  Observers B. M. Africano, E. J. Christensen, G. A. Farneth,
   D. C. Fuls, A. R. Gibbs, A. D. Grauer, H. Groeller, J. A. Johnson, R. A.
   Kowalski, S. M. Larson, G. J. Leonard, R. L. Seaman, F. C. Shelly. 1.0-m
   reflector + CCD.
(L01) Višnjan Observatory, Tičan  (N45.290900 E13.749300)  Croatia.
   Observers K. Korlević, E. Pettarin. Measurer E. Pettarin. 1.0-m f/2.9
   reflector + CCD.

Orbital elements:  ZTF02CO
   Perihelion 2019 Mar 12.206192 +/- 0.0127 TT =  4:56:55 (JD 2458554.706192)
Epoch 2019 Jan 11.0 TT = JDT 2458494.5   Earth MOID: 0.0043   Ve: 0.0719
M 312.40628320 +/- 0.026            Ma: 0.0662                AutoNEOCP
n   0.79051199 +/- 0.000281         Peri.   83.73028 +/- 0.0038
a   1.15841384 +/- 0.000275         Node   109.48016 +/- 0.00048
e   0.3307149 +/- 0.000283          Incl.    6.81527 +/- 0.0058
P   1.25/455.39d           H 25.8   G  0.15   U  7.3  
q 0.77530903 +/- 0.000145    Q 1.54151866 +/- 0.000693
From 28 observations 2019 Jan. 10-11 (36.0 hr); mean residual 0".61
Residuals in arcseconds: 
190110 I41  .72+  .46-    190111 I52  .45+  .52-    190111 104  .20+  .02-    
190110 I41  .10+  .31-    190111 I52  .31-  .21+    190111 595  1.8-  .16-    
190110 I41  .14-  .61+    190111 L01  .07-  .04+    190111 595  .30-  .00     
190110 I41  .59-  .55+    190111 L01  .07-  .04-    190111 104  .22+  .21-    
190111 I41  .08+  .86+    190111 L01  .00   .16+    190111 106  1.2+  .33-    
190111 I41  1.1-  .35+    190111 L01  .11-  .26+    190111 106  .65+  .39-    
190111 I41  1.4+  1.6-    190111 L01  .01+  .02+    190111 106  .94+  .75-    
190111 I41  .40+  1.0-    190111 L01  .17+  .33+    190111 106  .40+  1.3+    
190111 I52  1.0-  .40+    190111 104  .13-  .08+    
190111 I52  .02-  .43+    190111 595  .72-  .14+    

Ephemerides (geocentric):
Date (UTC) HH   RA              Dec         delta   r     elong  mag " sig PA
---- -- -- --  -------------   -----------  ------ ------ -----  --- ---- ---
2019 01 12 01  02 58 39.521   +30 14 52.16  .01151 .98907 118.9 18.2 .701 116
2019 01 12 02  02 53 35.298   +30 29 16.72  .01142 .98884 117.8 18.2 .785 114
2019 01 12 03  02 48 24.780   +30 43 09.57  .01133 .98861 116.7 18.3 .875 112
2019 01 12 04  02 43 08.096   +30 56 27.59  .01125 .98837 115.6 18.3 .971 110
2019 01 12 05  02 37 45.403   +31 09 07.63  .01117 .98814 114.5 18.3 1.07 109
2019 01 12 06  02 32 16.894   +31 21 06.55  .01110 .98791 113.3 18.3 1.18 107
2019 01 12 07  02 26 42.791   +31 32 21.24  .01103 .98768 112.2 18.3 1.29 106
2019 01 12 08  02 21 03.354   +31 42 48.63  .01097 .98745 111.0 18.4 1.40 104
2019 01 12 09  02 15 18.874   +31 52 25.75  .01091 .98722 109.8 18.4 1.52 103
2019 01 12 10  02 09 29.678   +32 01 09.75  .01085 .98699 108.6 18.4 1.65 102
2019 01 12 11  02 03 36.126   +32 08 57.93  .01080 .98675 107.4 18.4 1.78 101
2019 01 12 12  01 57 38.608   +32 15 47.76  .01076 .98652 106.2 18.5 1.91  99
2019 01 12 13  01 51 37.548   +32 21 36.94  .01072 .98629 104.9 18.5 2.05  98
2019 01 12 14  01 45 33.394   +32 26 23.42  .01069 .98606 103.7 18.5 2.19  97
2019 01 12 15  01 39 26.620   +32 30 05.42  .01066 .98583 102.4 18.6 2.34  96
2019 01 12 16  01 33 17.724   +32 32 41.44  .01064 .98560 101.2 18.6 2.48  95
2019 01 12 17  01 27 07.219   +32 34 10.34  .01062 .98537  99.9 18.7 2.63  94
2019 01 12 18  01 20 55.633   +32 34 31.29  .01061 .98514  98.7 18.7 2.79  93
2019 01 12 19  01 14 43.504   +32 33 43.83  .01061 .98490  97.4 18.7 2.94  92
2019 01 12 20  01 08 31.373   +32 31 47.83  .01061 .98467  96.1 18.8 3.09  91
2019 01 12 21  01 02 19.783   +32 28 43.56  .01061 .98444  94.9 18.8 3.25  90
2019 01 12 22  00 56 09.271   +32 24 31.62  .01062 .98421  93.6 18.9 3.40  89
2019 01 12 23  00 50 00.364   +32 19 12.99  .01064 .98398  92.3 18.9 3.56  88
2019 01 13 00  00 43 53.578   +32 12 48.97  .01066 .98375  91.1 19.0 3.71  87
2019 01 13 01  00 37 49.409   +32 05 21.17  .01069 .98352  89.8 19.1 3.87  86
2019 01 13 02  00 31 48.330   +31 56 51.52  .01072 .98329  88.6 19.1 4.02  85
2019 01 13 03  00 25 50.793   +31 47 22.21  .01076 .98306  87.3 19.2 4.17  84
2019 01 13 04  00 19 57.219   +31 36 55.70  .01080 .98282  86.1 19.2 4.32  84
2019 01 13 05  00 14 07.999   +31 25 34.61  .01085 .98259  84.9 19.3 4.46  83
2019 01 13 06  00 08 23.493   +31 13 21.80  .01091 .98236  83.7 19.4 4.61  82
2019 01 13 07  00 02 44.028   +31 00 20.23  .01097 .98213  82.5 19.4 4.75  81
2019 01 13 08  23 57 09.897   +30 46 33.01  .01103 .98190  81.3 19.5 4.88  80
2019 01 13 09  23 51 41.358   +30 32 03.31  .01110 .98167  80.2 19.6 5.01  80
2019 01 13 10  23 46 18.635   +30 16 54.36  .01117 .98144  79.0 19.6 5.14  79
2019 01 13 11  23 41 01.920   +30 01 09.41  .01125 .98121  77.9 19.7 5.27  78
2019 01 13 12  23 35 51.371   +29 44 51.70  .01133 .98098  76.8 19.8 5.38  77
2019 01 13 13  23 30 47.115   +29 28 04.45  .01142 .98075  75.7 19.8 5.50  77
2019 01 13 14  23 25 49.251   +29 10 50.81  .01151 .98052  74.6 19.9 5.61  76
2019 01 13 15  23 20 57.848   +28 53 13.85  .01161 .98029  73.5 20.0 5.72  75
2019 01 13 16  23 16 12.950   +28 35 16.57  .01171 .98006  72.5 20.1 5.82  75
2019 01 13 17  23 11 34.577   +28 17 01.86  .01181 .97983  71.4 20.1 5.91  74
2019 01 13 18  23 07 02.725   +27 58 32.47  .01192 .97959  70.4 20.2 6.01  74
2019 01 13 19  23 02 37.373   +27 39 51.04  .01203 .97936  69.4 20.3 6.10  73
2019 01 13 20  22 58 18.479   +27 21 00.08  .01215 .97913  68.5 20.4 6.18  73
2019 01 13 21  22 54 05.986   +27 02 01.93  .01227 .97890  67.5 20.5 6.26  72
2019 01 13 22  22 49 59.822   +26 42 58.83  .01239 .97867  66.6 20.5 6.33  72
2019 01 13 23  22 45 59.903   +26 23 52.84  .01252 .97844  65.7 20.6 6.40  71
2019 01 14 00  22 42 06.134   +26 04 45.90  .01265 .97821  64.8 20.7 6.47  71